EW7837 Weather Reports


time (UTC)temp
C
wind
direction
speed
KPH
gust
KPH
rain 1hr
cm
rain 24hr
cm
rain mn
cm
humidity
%
barometer
mb
20260507110010 12 250 0.0 0.0 0.00 0.00 0.00 90 1013.0
20260507104506 12 250 0.0 0.0 0.00 0.00 0.00 90 1013.1
20260507103002 12 250 0.0 0.0 0.00 0.00 0.00 90 1013.2
20260507101501 13 250 0.0 0.0 0.00 0.00 0.00 89 1013.2
20260507100001 13 250 0.0 0.0 0.00 0.00 0.00 90 1013.2
20260507094601 13 250 0.0 0.0 0.00 0.00 0.00 89 1013.2
20260507093057 13 250 0.0 0.0 0.00 0.00 0.00 89 1013.5
20260507091556 13 250 0.0 0.0 0.00 0.00 0.00 89 1013.6
20260507090056 13 250 0.0 0.0 0.00 0.00 0.00 89 1013.7
20260507084601 13 250 0.0 0.0 0.00 0.00 0.00 88 1013.9
20260507083050 13 250 0.0 0.0 0.00 0.00 0.00 88 1014.2
20260507081550 13 250 0.0 0.0 0.00 0.00 0.00 88 1014.2
20260507080047 14 250 0.0 0.0 0.00 0.00 0.00 88 1014.2
20260507074549 14 250 0.0 0.0 0.00 0.00 0.00 88 1014.2
20260507073054 14 250 0.0 0.0 0.00 0.00 0.00 88 1014.1
20260507071541 14 250 0.0 0.0 0.00 0.00 0.00 87 1014.2
20260507070043 15 250 0.0 0.0 0.00 0.00 0.00 86 1014.3
20260507064546 15 250 0.0 0.0 0.00 0.00 0.00 86 1014.3
20260507063027 15 250 0.0 0.0 0.00 0.00 0.00 86 1014.3
20260507061509 15 250 0.0 0.0 0.00 0.00 0.00 85 1014.3
20260507060036 15 250 0.0 0.0 0.00 0.00 0.00 85 1014.3
20260507054536 15 250 0.0 0.0 0.00 0.00 0.00 84 1014.4
20260507053035 15 250 0.0 0.0 0.00 0.00 0.00 83 1014.4
20260507051528 16 250 0.0 0.0 0.00 0.00 0.00 83 1014.3
20260507050024 16 250 0.0 0.0 0.00 0.00 0.00 82 1014.3
20260507044522 17 250 0.0 0.0 0.00 0.00 0.00 80 1014.3
20260507043016 17 250 0.0 0.0 0.00 0.00 0.00 79 1014.2
20260507041515 18 250 0.0 0.0 0.00 0.00 0.00 79 1014.2
20260507040013 18 250 0.0 0.0 0.00 0.00 0.00 77 1014.0
20260507034512 18 250 0.0 0.0 0.00 0.00 0.00 77 1013.7
20260507033008 18 250 0.0 0.0 0.00 0.00 0.00 78 1013.7
20260507031506 18 250 0.0 0.0 0.00 0.00 0.00 78 1013.5
20260507030004 18 250 0.0 0.0 0.00 0.00 0.00 78 1013.3
20260507024502 19 250 0.0 0.0 0.00 0.00 0.00 76 1013.2
20260507023034 19 250 0.0 0.0 0.00 0.00 0.00 75 1013.2
20260507021534 20 250 0.0 0.0 0.00 0.00 0.00 73 1013.2
20260507020034 20 250 0.0 0.0 0.00 0.00 0.00 71 1013.0
20260507014533 21 250 0.0 0.0 0.00 0.00 0.00 69 1013.0
20260507013025 21 252 0.0 0.0 0.00 0.00 0.00 68 1013.1
20260507011526 21 252 0.0 0.0 0.00 0.00 0.00 67 1013.0
20260507010031 21 263 0.0 0.0 0.00 0.00 0.00 65 1012.9
20260507004522 22 279 1.6 0.0 0.00 0.00 0.00 64 1012.8
20260507003021 22 248 0.0 0.0 0.00 0.00 0.00 64 1012.8
20260507001523 22 268 0.0 0.0 0.00 0.00 0.00 65 1012.7
20260507000022 22 277 0.0 0.0 0.00 0.00 0.00 64 1012.7
20260506234535 22 275 1.6 0.0 0.00 0.00 0.00 65 1012.7
20260506233017 22 271 1.6 0.0 0.00 0.00 0.00 64 1012.7
20260506231517 22 268 1.6 0.0 0.00 0.00 0.00 63 1012.7
20260506230017 22 266 0.0 0.0 0.00 0.00 0.00 63 1012.7
20260506224600 22 256 1.6 0.0 0.00 0.00 0.00 63 1012.9
20260506223046 22 274 0.0 0.0 0.00 0.00 0.00 65 1013.1
20260506221512 22 266 1.6 0.0 0.00 0.00 0.00 65 1013.2
20260506220028 21 276 1.6 0.0 0.00 0.00 0.00 66 1013.3
20260506214510 21 261 1.6 0.0 0.00 0.00 0.00 66 1013.5
20260506213010 21 286 1.6 0.0 0.00 0.00 0.00 66 1013.6
20260506211517 22 261 1.6 0.0 0.00 0.00 0.00 66 1013.7
20260506210009 21 261 1.6 0.0 0.00 0.00 0.00 66 1013.7
20260506204506 21 285 1.6 0.0 0.00 0.00 0.00 66 1013.7
20260506203006 21 263 1.6 0.0 0.00 0.00 0.00 67 1013.8
20260506201505 21 219 3.2 0.0 0.00 0.00 0.00 67 1013.9
20260506200005 21 271 3.2 0.0 0.00 0.00 0.00 67 1014.2
20260506194538 21 261 3.2 0.0 0.00 0.00 0.00 67 1014.2
20260506193033 21 270 1.6 0.0 0.00 0.00 0.00 67 1014.3
20260506191508 21 271 3.2 0.0 0.00 0.00 0.00 67 1014.3
20260506190000 21 207 1.6 0.0 0.00 0.00 0.00 68 1014.4
20260506184556 21 266 1.6 0.0 0.00 0.00 0.00 67 1014.7
20260506183100 21 261 1.6 0.0 0.00 0.00 0.00 67 1014.7
20260506181602 21 259 1.6 0.0 0.00 0.00 0.00 66 1014.8
20260506180050 21 261 0.0 0.0 0.00 0.00 0.00 65 1014.8
20260506174544 21 260 0.0 0.0 0.00 0.00 0.00 62 1015.0
20260506173059 22 260 0.0 0.0 0.00 0.00 0.00 62 1015.2
20260506171544 21 260 0.0 0.0 0.00 0.00 0.00 61 1015.1
20260506170035 21 260 0.0 0.0 0.00 0.00 0.00 63 1015.2
20260506164528 20 260 0.0 0.0 0.00 0.00 0.00 65 1015.1
20260506163025 20 260 0.0 0.0 0.00 0.00 0.00 67 1015.1
20260506161521 18 260 0.0 0.0 0.00 0.00 0.00 69 1015.2
20260506160033 18 260 0.0 0.0 0.00 0.00 0.00 69 1015.2
20260506154516 18 260 0.0 0.0 0.00 0.00 0.00 71 1015.3
20260506153007 17 260 0.0 0.0 0.00 0.00 0.00 73 1015.3
20260506151505 16 260 0.0 0.0 0.00 0.00 0.00 77 1015.3
20260506150002 15 260 0.0 0.0 0.00 0.00 0.00 79 1015.3
20260506144555 14 260 0.0 0.0 0.00 0.00 0.00 82 1015.3
20260506143054 13 260 0.0 0.0 0.00 0.00 0.00 83 1015.3
20260506141552 13 260 0.0 0.0 0.00 0.00 0.00 85 1015.3
20260506140050 13 260 0.0 0.0 0.00 0.00 0.00 86 1015.3
20260506134548 12 260 0.0 0.0 0.00 0.00 0.00 86 1015.0
20260506133045 12 260 0.0 0.0 0.00 0.00 0.00 86 1014.8
20260506131556 13 260 0.0 0.0 0.00 0.00 0.00 86 1014.8
20260506130048 13 260 0.0 0.0 0.00 0.00 0.00 86 1014.6
20260506124513 13 260 0.0 0.0 0.00 0.00 0.00 86 1014.5
20260506123011 13 260 0.0 0.0 0.00 0.00 0.00 87 1014.3
20260506121508 13 260 0.0 0.0 0.00 0.00 0.00 86 1014.3
20260506120014 13 260 0.0 0.0 0.00 0.00 0.00 86 1014.3
20260506114508 13 260 0.0 0.0 0.00 0.00 0.00 86 1014.5
20260506113007 13 260 0.0 0.0 0.00 0.00 0.00 87 1014.4
20260506111505 13 260 0.0 0.0 0.00 0.00 0.00 88 1014.3